TimePST,TemperatureF,Dew PointF,Humidity,Sea Level PressureIn,VisibilityMPH,Wind Direction,Wind SpeedMPH,Gust SpeedMPH,PrecipitationIn,Events,Conditions,WindDirDegrees,DateUTC
12:15 AM,23.0,19.4,86,30.11,10.0,Calm,Calm,-,N/A,,Clear,0,2013-12-06 08:15:00
12:35 AM,23.0,19.4,86,30.10,10.0,Calm,Calm,-,N/A,,Clear,0,2013-12-06 08:35:00
12:55 AM,23.0,19.4,86,30.10,10.0,Calm,Calm,-,N/A,,Clear,0,2013-12-06 08:55:00
1:15 AM,21.2,19.4,93,30.10,9.0,Calm,Calm,-,N/A,,Clear,0,2013-12-06 09:15:00
1:35 AM,23.0,19.4,86,30.11,10.0,Calm,Calm,-,N/A,,Clear,0,2013-12-06 09:35:00
1:55 AM,23.0,19.4,86,30.11,10.0,Calm,Calm,-,N/A,,Clear,0,2013-12-06 09:55:00
2:15 AM,21.2,19.4,93,30.11,10.0,Calm,Calm,-,N/A,,Clear,0,2013-12-06 10:15:00
2:35 AM,21.2,19.4,93,30.11,10.0,Calm,Calm,-,N/A,,Clear,0,2013-12-06 10:35:00
2:55 AM,21.2,19.4,93,30.10,10.0,Calm,Calm,-,N/A,,Clear,0,2013-12-06 10:55:00
3:35 AM,23.0,19.4,86,30.10,10.0,Calm,Calm,-,N/A,,Clear,0,2013-12-06 11:35:00
3:55 AM,23.0,19.4,86,30.10,8.0,Calm,Calm,-,N/A,,Clear,0,2013-12-06 11:55:00
4:15 AM,21.2,19.4,93,30.10,10.0,Calm,Calm,-,N/A,,Clear,0,2013-12-06 12:15:00
4:35 AM,19.4,19.4,100,30.10,10.0,Calm,Calm,-,N/A,,Clear,0,2013-12-06 12:35:00
4:55 AM,21.2,19.4,93,30.10,10.0,Calm,Calm,-,N/A,,Clear,0,2013-12-06 12:55:00
5:15 AM,21.2,19.4,93,30.10,10.0,Calm,Calm,-,N/A,,Clear,0,2013-12-06 13:15:00
5:35 AM,19.4,19.4,100,30.10,10.0,Calm,Calm,-,N/A,,Clear,0,2013-12-06 13:35:00
5:55 AM,21.2,19.4,93,30.10,9.0,Calm,Calm,-,N/A,,Clear,0,2013-12-06 13:55:00
6:15 AM,21.2,19.4,93,30.10,10.0,Calm,Calm,-,N/A,,Clear,0,2013-12-06 14:15:00
6:35 AM,19.4,17.6,93,30.11,10.0,Calm,Calm,-,N/A,,Clear,0,2013-12-06 14:35:00
6:55 AM,19.4,17.6,93,30.11,10.0,Calm,Calm,-,N/A,,Clear,0,2013-12-06 14:55:00
7:15 AM,19.4,19.4,100,30.10,8.0,Calm,Calm,-,N/A,,Clear,0,2013-12-06 15:15:00
7:35 AM,23.0,19.4,86,30.11,9.0,Calm,Calm,-,N/A,,Clear,0,2013-12-06 15:35:00
7:55 AM,23.0,21.2,93,30.11,10.0,Calm,Calm,-,N/A,,Clear,0,2013-12-06 15:55:00
8:15 AM,26.6,24.8,93,30.11,10.0,Calm,Calm,-,N/A,,Clear,0,2013-12-06 16:15:00
8:35 AM,30.2,26.6,86,30.12,10.0,Calm,Calm,-,N/A,,Clear,0,2013-12-06 16:35:00
8:55 AM,32.0,23.0,69,30.13,10.0,Calm,Calm,-,N/A,,Clear,0,2013-12-06 16:55:00
9:15 AM,35.6,23.0,60,30.14,10.0,South,3.5,-,N/A,,Clear,170,2013-12-06 17:15:00
9:35 AM,37.4,23.0,56,30.14,10.0,Calm,Calm,-,N/A,,Clear,0,2013-12-06 17:35:00
9:55 AM,37.4,23.0,56,30.14,10.0,South,4.6,-,N/A,,Clear,190,2013-12-06 17:55:00
10:15 AM,39.2,21.2,49,30.14,10.0,SSE,3.5,-,N/A,,Clear,150,2013-12-06 18:15:00
10:35 AM,39.2,21.2,49,30.14,10.0,Calm,Calm,-,N/A,,Clear,0,2013-12-06 18:35:00
10:55 AM,41.0,23.0,49,30.13,10.0,SSW,4.6,-,N/A,,Clear,210,2013-12-06 18:55:00
11:15 AM,41.0,23.0,49,30.12,10.0,SSW,8.1,-,N/A,,Clear,210,2013-12-06 19:15:00
11:35 AM,41.0,23.0,49,30.12,10.0,SSW,4.6,-,N/A,,Clear,200,2013-12-06 19:35:00
11:55 AM,42.8,23.0,46,30.11,10.0,South,3.5,-,N/A,,Clear,180,2013-12-06 19:55:00
12:15 PM,39.2,23.0,52,30.11,10.0,South,4.6,-,N/A,,Partly Cloudy,190,2013-12-06 20:15:00
12:35 PM,39.2,23.0,52,30.11,10.0,SSW,3.5,-,N/A,,Mostly Cloudy,200,2013-12-06 20:35:00
12:55 PM,39.2,21.2,49,30.10,10.0,South,3.5,-,N/A,,Overcast,180,2013-12-06 20:55:00
1:15 PM,39.2,23.0,52,30.10,10.0,South,3.5,-,N/A,,Mostly Cloudy,190,2013-12-06 21:15:00
1:35 PM,39.2,21.2,49,30.09,10.0,South,3.5,-,N/A,,Scattered Clouds,170,2013-12-06 21:35:00
1:55 PM,39.2,21.2,49,30.08,10.0,Calm,Calm,-,N/A,,Mostly Cloudy,0,2013-12-06 21:55:00
2:15 PM,39.2,23.0,52,30.08,10.0,Calm,Calm,-,N/A,,Mostly Cloudy,0,2013-12-06 22:15:00
2:35 PM,39.2,23.0,52,30.07,10.0,SSE,4.6,-,N/A,,Scattered Clouds,150,2013-12-06 22:35:00
3:55 PM,39.2,23.0,52,30.07,10.0,Calm,Calm,-,N/A,,Overcast,0,2013-12-06 23:55:00
4:15 PM,37.4,21.2,52,30.07,10.0,SSE,3.5,-,N/A,,Overcast,160,2013-12-07 00:15:00
4:35 PM,37.4,23.0,56,30.07,10.0,Calm,Calm,-,N/A,,Overcast,0,2013-12-07 00:35:00
4:55 PM,37.4,23.0,56,30.07,10.0,Calm,Calm,-,N/A,,Overcast,0,2013-12-07 00:55:00
5:15 PM,37.4,23.0,56,30.07,10.0,Calm,Calm,-,N/A,,Overcast,0,2013-12-07 01:15:00
5:35 PM,37.4,23.0,56,30.06,10.0,Calm,Calm,-,N/A,,Overcast,0,2013-12-07 01:35:00
5:55 PM,37.4,23.0,56,30.05,10.0,Calm,Calm,-,N/A,,Overcast,0,2013-12-07 01:55:00
6:15 PM,37.4,21.2,52,30.04,10.0,Calm,Calm,-,N/A,,Overcast,0,2013-12-07 02:15:00
6:35 PM,37.4,23.0,56,30.03,10.0,Calm,Calm,-,N/A,,Overcast,0,2013-12-07 02:35:00
6:55 PM,37.4,23.0,56,30.03,10.0,Calm,Calm,-,N/A,,Overcast,0,2013-12-07 02:55:00
7:15 PM,37.4,23.0,56,30.03,10.0,Calm,Calm,-,N/A,,Overcast,0,2013-12-07 03:15:00
7:35 PM,37.4,23.0,56,30.02,10.0,Calm,Calm,-,N/A,,Overcast,0,2013-12-07 03:35:00
7:55 PM,37.4,23.0,56,30.01,10.0,Calm,Calm,-,N/A,,Overcast,0,2013-12-07 03:55:00
8:15 PM,37.4,24.8,60,30.01,10.0,ESE,3.5,-,N/A,,Overcast,120,2013-12-07 04:15:00
8:35 PM,35.6,26.6,70,30.00,3.0,Calm,Calm,-,N/A,,Overcast,0,2013-12-07 04:35:00
8:55 PM,35.6,26.6,70,30.01,3.0,Calm,Calm,-,N/A,,Overcast,0,2013-12-07 04:55:00
9:15 PM,33.8,28.4,81,30.00,5.0,ESE,3.5,-,N/A,,Overcast,120,2013-12-07 05:15:00
9:35 PM,33.8,28.4,81,30.00,1.5,SE,4.6,-,N/A,,Mostly Cloudy,130,2013-12-07 05:35:00
9:55 PM,32.0,30.2,93,29.98,0.8,Calm,Calm,-,N/A,,Mostly Cloudy,0,2013-12-07 05:55:00
10:15 PM,32.0,32.0,100,29.97,0.5,Calm,Calm,-,N/A,,Overcast,0,2013-12-07 06:15:00
10:35 PM,32.0,32.0,100,29.97,0.2,Calm,Calm,-,N/A,,Overcast,0,2013-12-07 06:35:00
10:55 PM,32.0,32.0,100,29.96,0.5,Calm,Calm,-,N/A,,Overcast,0,2013-12-07 06:55:00
11:15 PM,32.0,32.0,100,29.94,0.2,Calm,Calm,-,N/A,,Overcast,0,2013-12-07 07:15:00
11:35 PM,32.0,32.0,100,29.92,0.2,SE,4.6,-,N/A,,Overcast,140,2013-12-07 07:35:00
11:55 PM,32.0,32.0,100,29.91,0.2,SE,4.6,-,N/A,,Overcast,140,2013-12-07 07:55:00